RYR2LW EGSS-LIPY

Flight info

Callsign RYR2LW
Flight time 1h 48m
Altitude 35000
Route CLN M84 KONAN UL607 KOK DCT RITAX DCT KRH DCT UTABA DCT BEMKI DCT ELMEM DCT GIRIS DCT SUMIR DCT CHI/N0339F190 L612 LANLI
Aircraft B38M/M-SADE3FGIJ1LRWYZ/SB1

Departure

Time 2026-04-21 12:05
Airport London Stansted Airport (EGSS)

Arrival

Time 2026-04-21 13:53
Airport Marche Airport (LIPY)
Time Latitude Longitude Altitude Speed Heading
2026-04-21 11:37 51.89128 0.25521 362 ft 0 kts 55°
2026-04-21 11:53 51.89120 0.25504 360 ft 4 kts 55°
2026-04-21 11:53 51.89108 0.25477 364 ft 4 kts 32°
2026-04-21 11:53 51.89091 0.25479 363 ft 4 kts 317°
2026-04-21 11:54 51.89073 0.25509 361 ft 3 kts 313°
2026-04-21 11:54 51.89070 0.25514 363 ft 0 kts 313°
2026-04-21 11:57 51.89073 0.25509 361 ft 1 kts 313°
2026-04-21 11:57 51.89076 0.25505 358 ft 0 kts 313°
2026-04-21 11:57 51.89082 0.25491 358 ft 2 kts 301°
2026-04-21 11:58 51.89086 0.25454 359 ft 4 kts 274°
2026-04-21 11:58 51.89092 0.25394 359 ft 7 kts 291°
2026-04-21 11:58 51.89124 0.25327 359 ft 9 kts 313°
2026-04-21 11:58 51.89176 0.25260 357 ft 11 kts 329°
2026-04-21 11:59 51.89235 0.25175 358 ft 12 kts 298°
2026-04-21 11:59 51.89215 0.25047 362 ft 13 kts 236°
2026-04-21 11:59 51.89146 0.24933 361 ft 15 kts 222°
2026-04-21 11:59 51.89063 0.24812 357 ft 17 kts 222°
2026-04-21 12:00 51.88973 0.24673 356 ft 19 kts 223°
2026-04-21 12:00 51.88872 0.24523 358 ft 21 kts 222°
2026-04-21 12:00 51.88753 0.24347 349 ft 25 kts 222°
2026-04-21 12:00 51.88615 0.24139 347 ft 28 kts 223°
2026-04-21 12:01 51.88470 0.23918 348 ft 28 kts 223°
2026-04-21 12:01 51.88328 0.23704 350 ft 28 kts 223°
2026-04-21 12:01 51.88184 0.23491 344 ft 28 kts 222°
2026-04-21 12:01 51.88035 0.23269 339 ft 31 kts 223°
2026-04-21 12:02 51.87877 0.23031 340 ft 32 kts 223°
2026-04-21 12:02 51.87581 0.22586 334 ft 27 kts 222°
2026-04-21 12:02 51.87461 0.22407 332 ft 17 kts 223°
2026-04-21 12:03 51.87404 0.22262 327 ft 15 kts 274°
2026-04-21 12:03 51.87434 0.22150 327 ft 0 kts 311°
2026-04-21 12:03 51.87441 0.22137 326 ft 4 kts 311°
2026-04-21 12:03 51.87471 0.22081 325 ft 9 kts 313°
2026-04-21 12:04 51.87524 0.22030 322 ft 9 kts 12°
2026-04-21 12:04 51.87580 0.22100 324 ft 13 kts 43°
2026-04-21 12:04 51.87782 0.22407 331 ft 76 kts 43°
2026-04-21 12:04 51.88343 0.23241 339 ft 140 kts 43°
2026-04-21 12:05 51.89097 0.24372 887 ft 153 kts 46°
2026-04-21 12:05 51.89862 0.25533 1843 ft 151 kts 47°
2026-04-21 12:05 51.90661 0.26732 2480 ft 165 kts 47°
2026-04-21 12:05 51.91438 0.28228 2899 ft 184 kts 66°
2026-04-21 12:06 51.91682 0.30364 3319 ft 206 kts 93°
2026-04-21 12:06 51.91234 0.32724 3709 ft 228 kts 112°
2026-04-21 12:06 51.90579 0.35045 4606 ft 223 kts 112°
2026-04-21 12:06 51.89928 0.37340 5547 ft 228 kts 112°
2026-04-21 12:07 51.89239 0.39744 6203 ft 243 kts 112°
2026-04-21 12:07 51.88504 0.42282 6938 ft 252 kts 112°
2026-04-21 12:07 51.87753 0.44846 7860 ft 253 kts 113°
2026-04-21 12:07 51.86997 0.47442 8668 ft 259 kts 113°
2026-04-21 12:08 51.86222 0.50089 9539 ft 261 kts 113°
2026-04-21 12:08 51.85435 0.52768 10355 ft 267 kts 113°
2026-04-21 12:08 51.84908 0.54565 10868 ft 269 kts 113°
2026-04-21 12:08 51.84082 0.57376 11337 ft 286 kts 113°
2026-04-21 12:09 51.83197 0.60374 11746 ft 303 kts 117°
2026-04-21 12:09 51.81892 0.63136 12345 ft 314 kts 129°
2026-04-21 12:09 51.80468 0.65828 13086 ft 318 kts 127°
2026-04-21 12:09 51.79037 0.68584 13838 ft 324 kts 127°
2026-04-21 12:10 51.77579 0.71413 14465 ft 329 kts 126°
2026-04-21 12:10 51.76118 0.74266 15209 ft 332 kts 126°
2026-04-21 12:10 51.74640 0.77146 15935 ft 333 kts 127°
2026-04-21 12:10 51.73153 0.80060 16543 ft 340 kts 127°
2026-04-21 12:11 51.71645 0.83007 17251 ft 341 kts 126°
2026-04-21 12:11 51.70127 0.85967 17936 ft 345 kts 127°
2026-04-21 12:11 51.68585 0.88973 18439 ft 353 kts 127°
2026-04-21 12:11 51.67013 0.92023 19073 ft 353 kts 127°
2026-04-21 12:12 51.65433 0.95092 19483 ft 361 kts 128°
2026-04-21 12:12 51.63825 0.98224 19947 ft 365 kts 127°
2026-04-21 12:12 51.62197 1.01380 20508 ft 368 kts 127°
2026-04-21 12:12 51.60552 1.04562 20988 ft 372 kts 128°
2026-04-21 12:13 51.58890 1.07776 21517 ft 374 kts 128°
2026-04-21 12:13 51.57219 1.11007 22028 ft 378 kts 127°
2026-04-21 12:13 51.55522 1.14282 22482 ft 383 kts 128°
2026-04-21 12:13 51.53802 1.17597 22796 ft 392 kts 128°
2026-04-21 12:14 51.52045 1.20973 23319 ft 394 kts 129°
2026-04-21 12:14 51.50281 1.24353 23829 ft 397 kts 129°
2026-04-21 12:14 51.48506 1.27749 24229 ft 401 kts 128°
2026-04-21 12:14 51.46696 1.31227 24458 ft 410 kts 129°
2026-04-21 12:15 51.44870 1.34725 24953 ft 410 kts 129°
2026-04-21 12:15 51.43063 1.38320 25205 ft 418 kts 126°
2026-04-21 12:15 51.41318 1.41996 25615 ft 420 kts 126°
2026-04-21 12:15 51.39534 1.45715 26047 ft 423 kts 126°
2026-04-21 12:16 51.37713 1.49493 26506 ft 424 kts 127°
2026-04-21 12:16 51.35919 1.53203 26830 ft 429 kts 127°
2026-04-21 12:16 51.34077 1.57008 27149 ft 434 kts 127°
2026-04-21 12:16 51.32228 1.60820 27484 ft 438 kts 127°
2026-04-21 12:17 51.30343 1.64710 27671 ft 447 kts 127°
2026-04-21 12:17 51.28402 1.68640 27853 ft 453 kts 127°
2026-04-21 12:17 51.26473 1.72604 28342 ft 453 kts 127°
2026-04-21 12:17 51.24529 1.76618 28503 ft 461 kts 127°
2026-04-21 12:18 51.22555 1.80672 28870 ft 463 kts 127°
2026-04-21 12:18 51.20566 1.84739 29162 ft 468 kts 127°
2026-04-21 12:18 51.18547 1.88857 29438 ft 472 kts 127°
2026-04-21 12:18 51.16526 1.92978 29834 ft 475 kts 127°
2026-04-21 12:19 51.14576 1.97230 30228 ft 475 kts 118°
2026-04-21 12:19 51.13282 2.02031 30437 ft 472 kts 100°
2026-04-21 12:19 51.12791 2.07171 30651 ft 470 kts 91°
2026-04-21 12:19 51.12466 2.12359 30915 ft 472 kts 91°
2026-04-21 12:20 51.12158 2.17557 31251 ft 473 kts 90°
2026-04-21 12:20 51.11863 2.22781 31548 ft 474 kts 90°
2026-04-21 12:20 51.11573 2.28015 31846 ft 476 kts 90°
2026-04-21 12:20 51.11283 2.33267 32138 ft 477 kts 91°
2026-04-21 12:21 51.10990 2.38535 32455 ft 479 kts 91°
2026-04-21 12:21 51.10677 2.43804 32856 ft 477 kts 91°
2026-04-21 12:21 51.10390 2.49077 33100 ft 480 kts 91°
2026-04-21 12:21 51.10094 2.54363 33391 ft 481 kts 91°
2026-04-21 12:22 51.09792 2.59650 33780 ft 480 kts 91°
2026-04-21 12:22 51.09257 2.64902 34142 ft 483 kts 105°
2026-04-21 12:22 51.07976 2.69820 34494 ft 484 kts 113°
2026-04-21 12:22 51.06551 2.74677 34720 ft 485 kts 113°
2026-04-21 12:23 51.05113 2.79510 35019 ft 484 kts 114°
2026-04-21 12:23 51.03655 2.84338 35292 ft 485 kts 114°
2026-04-21 12:23 51.02190 2.89151 35315 ft 482 kts 114°
2026-04-21 12:24 50.99279 2.98678 35285 ft 479 kts 114°
2026-04-21 12:24 50.96366 3.08168 35278 ft 479 kts 114°
2026-04-21 12:25 50.93460 3.17602 35274 ft 479 kts 114°
2026-04-21 12:25 50.90531 3.27072 35268 ft 479 kts 114°
2026-04-21 12:26 50.87593 3.36535 35271 ft 478 kts 114°
2026-04-21 12:26 50.84659 3.45949 35267 ft 478 kts 114°
2026-04-21 12:27 50.81710 3.55374 35254 ft 478 kts 115°
2026-04-21 12:27 50.78744 3.64816 35267 ft 481 kts 115°
2026-04-21 12:28 50.75772 3.74244 35262 ft 480 kts 115°
2026-04-21 12:28 50.72788 3.83673 35262 ft 479 kts 115°
2026-04-21 12:29 50.69806 3.93059 35265 ft 479 kts 115°
2026-04-21 12:29 50.66819 4.02424 35267 ft 479 kts 115°
2026-04-21 12:30 50.63823 4.11784 35259 ft 479 kts 115°
2026-04-21 12:30 50.60816 4.21143 35245 ft 479 kts 115°
2026-04-21 12:31 50.57804 4.30480 35243 ft 479 kts 115°
2026-04-21 12:31 50.54777 4.39829 35239 ft 480 kts 115°
2026-04-21 12:32 50.51738 4.49182 35239 ft 482 kts 115°
2026-04-21 12:32 50.48679 4.58559 35239 ft 482 kts 115°
2026-04-21 12:33 50.45621 4.67898 35247 ft 481 kts 115°
2026-04-21 12:33 50.42584 4.77140 35250 ft 479 kts 116°
2026-04-21 12:34 50.39525 4.86413 35227 ft 480 kts 116°
2026-04-21 12:34 50.36456 4.95684 35233 ft 480 kts 116°
2026-04-21 12:35 50.33378 5.04946 35228 ft 480 kts 116°
2026-04-21 12:35 50.30296 5.14186 35212 ft 477 kts 116°
2026-04-21 12:36 50.27206 5.23419 35231 ft 482 kts 116°
2026-04-21 12:36 50.24089 5.32696 35215 ft 482 kts 116°
2026-04-21 12:37 50.20966 5.41957 35217 ft 482 kts 116°
2026-04-21 12:37 50.17841 5.51192 35233 ft 482 kts 116°
2026-04-21 12:38 50.14718 5.60394 35218 ft 478 kts 116°
2026-04-21 12:38 50.11604 5.69539 35211 ft 478 kts 116°
2026-04-21 12:39 50.08482 5.78675 35206 ft 478 kts 117°
2026-04-21 12:39 50.05158 5.87608 35203 ft 478 kts 119°
2026-04-21 12:40 50.01836 5.96529 35214 ft 482 kts 119°
2026-04-21 12:40 49.98478 6.05534 35194 ft 481 kts 119°
2026-04-21 12:41 49.95116 6.14517 35194 ft 481 kts 119°
2026-04-21 12:41 49.91756 6.23466 35185 ft 481 kts 119°
2026-04-21 12:42 49.88383 6.32417 35184 ft 481 kts 119°
2026-04-21 12:42 49.85003 6.41355 35184 ft 479 kts 119°
2026-04-21 12:43 49.81637 6.50228 35176 ft 478 kts 119°
2026-04-21 12:43 49.78261 6.59097 35163 ft 478 kts 119°
2026-04-21 12:44 49.74864 6.67988 35172 ft 482 kts 120°
2026-04-21 12:44 49.71441 6.76919 35163 ft 482 kts 120°
2026-04-21 12:45 49.68035 6.85776 35168 ft 479 kts 120°
2026-04-21 12:45 49.64628 6.94606 35174 ft 478 kts 120°
2026-04-21 12:46 49.61217 7.03414 35184 ft 478 kts 120°
2026-04-21 12:46 49.57796 7.12220 35184 ft 479 kts 120°
2026-04-21 12:47 49.54376 7.20994 35199 ft 478 kts 120°
2026-04-21 12:47 49.50947 7.29761 35173 ft 478 kts 120°
2026-04-21 12:48 49.47491 7.38568 35179 ft 483 kts 120°
2026-04-21 12:48 49.44014 7.47401 35182 ft 483 kts 120°
2026-04-21 12:49 49.40534 7.56208 35182 ft 483 kts 120°
2026-04-21 12:49 49.37046 7.65009 35198 ft 481 kts 120°
2026-04-21 12:50 49.33597 7.73680 35188 ft 479 kts 121°
2026-04-21 12:50 49.30127 7.82378 35178 ft 479 kts 121°
2026-04-21 12:51 49.26638 7.91093 35172 ft 479 kts 121°
2026-04-21 12:51 49.23148 7.99783 35160 ft 482 kts 121°
2026-04-21 12:52 49.19616 8.08550 35176 ft 483 kts 121°
2026-04-21 12:52 49.16090 8.17271 35163 ft 483 kts 121°
2026-04-21 12:53 49.12553 8.25992 35161 ft 483 kts 121°
2026-04-21 12:53 49.09008 8.34707 35160 ft 483 kts 121°
2026-04-21 12:54 49.05461 8.43403 35166 ft 483 kts 121°
2026-04-21 12:54 49.01918 8.52062 35164 ft 483 kts 121°
2026-04-21 12:55 48.97789 8.60028 35144 ft 478 kts 143°
2026-04-21 12:55 48.92583 8.66465 35149 ft 485 kts 142°
2026-04-21 12:56 48.87318 8.72889 35158 ft 485 kts 143°
2026-04-21 12:56 48.82929 8.78175 35173 ft 485 kts 143°
2026-04-21 12:57 48.77658 8.84501 35160 ft 483 kts 143°
2026-04-21 12:57 48.72378 8.90817 35138 ft 484 kts 143°
2026-04-21 12:58 48.67077 8.97145 35153 ft 487 kts 143°
2026-04-21 12:58 48.61762 9.03471 35154 ft 486 kts 143°
2026-04-21 12:59 48.56449 9.09777 35155 ft 486 kts 143°
2026-04-21 12:59 48.51130 9.16072 35161 ft 485 kts 143°
2026-04-21 13:00 48.45827 9.22332 35142 ft 484 kts 143°
2026-04-21 13:00 48.40520 9.28579 35148 ft 485 kts 143°
2026-04-21 13:01 48.35207 9.34815 35139 ft 485 kts 143°
2026-04-21 13:01 48.29885 9.41048 35138 ft 484 kts 143°
2026-04-21 13:02 48.24615 9.47321 35133 ft 485 kts 142°
2026-04-21 13:02 48.16765 9.57014 35133 ft 487 kts 142°
2026-04-21 13:03 48.11520 9.63448 35131 ft 487 kts 142°
2026-04-21 13:03 48.06280 9.69856 35120 ft 488 kts 142°
2026-04-21 13:04 48.01021 9.76270 35107 ft 488 kts 143°
2026-04-21 13:04 47.95747 9.82687 35119 ft 490 kts 143°
2026-04-21 13:05 47.90469 9.89089 35112 ft 489 kts 143°
2026-04-21 13:05 47.85235 9.95422 35112 ft 489 kts 143°
2026-04-21 13:06 47.79953 10.01796 35097 ft 489 kts 143°
2026-04-21 13:06 47.74657 10.08168 35082 ft 490 kts 143°
2026-04-21 13:07 47.69347 10.14541 35099 ft 491 kts 143°
2026-04-21 13:07 47.64046 10.20886 35084 ft 489 kts 143°
2026-04-21 13:08 47.58747 10.27215 35072 ft 490 kts 143°
2026-04-21 13:08 47.53263 10.33140 35046 ft 487 kts 149°
2026-04-21 13:09 47.47592 10.38677 35051 ft 490 kts 150°
2026-04-21 13:09 47.41901 10.44196 35056 ft 489 kts 150°
2026-04-21 13:10 47.36207 10.49704 35044 ft 488 kts 150°
2026-04-21 13:10 47.30529 10.55181 35020 ft 488 kts 150°
2026-04-21 13:11 47.24517 10.59583 35045 ft 483 kts 162°
2026-04-21 13:11 47.18343 10.63359 35011 ft 483 kts 162°
2026-04-21 13:12 47.12145 10.67158 35010 ft 484 kts 162°
2026-04-21 13:12 47.05926 10.70937 34983 ft 483 kts 166°
2026-04-21 13:13 46.99688 10.74419 34935 ft 493 kts 147°
2026-04-21 13:13 46.96928 10.77307 34788 ft 485 kts 149°
2026-04-21 13:13 46.94151 10.80148 34855 ft 488 kts 150°
2026-04-21 13:14 46.91191 10.82436 34962 ft 478 kts 167°
2026-04-21 13:14 46.87994 10.83537 35015 ft 470 kts 178°
2026-04-21 13:14 46.81620 10.86053 35004 ft 480 kts 166°
2026-04-21 13:15 46.75495 10.90075 34995 ft 490 kts 152°
2026-04-21 13:15 46.69715 10.95411 34992 ft 492 kts 152°
2026-04-21 13:16 46.63944 11.00788 34870 ft 492 kts 153°
2026-04-21 13:16 46.61058 11.03478 35000 ft 494 kts 152°
2026-04-21 13:16 46.58165 11.06169 34921 ft 495 kts 153°
2026-04-21 13:17 46.52384 11.11538 34929 ft 494 kts 153°
2026-04-21 13:17 46.46588 11.16908 34932 ft 495 kts 153°
2026-04-21 13:18 46.40791 11.22265 34877 ft 494 kts 153°
2026-04-21 13:18 46.35013 11.27591 34952 ft 494 kts 153°
2026-04-21 13:19 46.29208 11.32927 34924 ft 494 kts 153°
2026-04-21 13:19 46.23308 11.37908 34936 ft 491 kts 158°
2026-04-21 13:20 46.17312 11.42611 34942 ft 491 kts 157°
2026-04-21 13:20 46.11323 11.47354 34945 ft 491 kts 157°
2026-04-21 13:21 46.05343 11.52084 34959 ft 491 kts 157°
2026-04-21 13:21 45.99360 11.56806 34970 ft 491 kts 157°
2026-04-21 13:22 45.93383 11.61510 34967 ft 489 kts 157°
2026-04-21 13:22 45.87406 11.66203 34957 ft 488 kts 157°
2026-04-21 13:23 45.81446 11.70871 34971 ft 488 kts 157°
2026-04-21 13:23 45.75488 11.75526 34952 ft 489 kts 157°
2026-04-21 13:24 45.69526 11.80172 34986 ft 488 kts 157°
2026-04-21 13:24 45.63555 11.84814 34988 ft 487 kts 157°
2026-04-21 13:25 45.60614 11.87098 34850 ft 476 kts 157°
2026-04-21 13:25 45.57727 11.89334 34579 ft 467 kts 158°
2026-04-21 13:25 45.54894 11.91527 34308 ft 461 kts 158°
2026-04-21 13:25 45.52084 11.93701 34024 ft 459 kts 158°
2026-04-21 13:26 45.49285 11.95863 33708 ft 458 kts 158°
2026-04-21 13:26 45.46486 11.98022 33398 ft 456 kts 158°
2026-04-21 13:26 45.43702 12.00168 33095 ft 455 kts 158°
2026-04-21 13:26 45.40928 12.02304 32795 ft 453 kts 158°
2026-04-21 13:27 45.38155 12.04436 32477 ft 449 kts 158°
2026-04-21 13:27 45.35415 12.06541 31978 ft 448 kts 158°
2026-04-21 13:27 45.32706 12.08618 31389 ft 449 kts 158°
2026-04-21 13:27 45.29918 12.10755 30868 ft 448 kts 158°
2026-04-21 13:28 45.27229 12.12814 30463 ft 445 kts 158°
2026-04-21 13:28 45.24512 12.14891 30067 ft 442 kts 158°
2026-04-21 13:28 45.21803 12.16961 29563 ft 440 kts 158°
2026-04-21 13:28 45.19117 12.19011 29119 ft 437 kts 158°
2026-04-21 13:29 45.16449 12.21045 28712 ft 433 kts 158°
2026-04-21 13:29 45.13801 12.23063 28292 ft 430 kts 158°
2026-04-21 13:29 45.11175 12.25060 27852 ft 427 kts 158°
2026-04-21 13:29 45.08569 12.27043 27469 ft 423 kts 158°
2026-04-21 13:30 45.06019 12.29090 27055 ft 423 kts 155°
2026-04-21 13:30 45.03490 12.31190 26666 ft 420 kts 155°
2026-04-21 13:30 45.00980 12.33257 26325 ft 416 kts 155°
2026-04-21 13:30 44.98478 12.35311 25922 ft 414 kts 155°
2026-04-21 13:31 44.95990 12.37350 25540 ft 412 kts 155°
2026-04-21 13:31 44.93521 12.39371 25152 ft 410 kts 155°
2026-04-21 13:31 44.91055 12.41387 24773 ft 408 kts 155°
2026-04-21 13:31 44.88605 12.43388 24363 ft 406 kts 155°
2026-04-21 13:32 44.86174 12.45372 24016 ft 404 kts 155°
2026-04-21 13:32 44.83744 12.47352 23661 ft 402 kts 155°
2026-04-21 13:32 44.81329 12.49319 23230 ft 400 kts 155°
2026-04-21 13:32 44.78922 12.51284 22787 ft 399 kts 155°
2026-04-21 13:33 44.76527 12.53238 22401 ft 396 kts 155°
2026-04-21 13:33 44.74162 12.55168 22084 ft 391 kts 155°
2026-04-21 13:33 44.71815 12.57080 21723 ft 388 kts 155°
2026-04-21 13:33 44.69488 12.58974 21371 ft 385 kts 155°
2026-04-21 13:34 44.67178 12.60852 20995 ft 382 kts 155°
2026-04-21 13:34 44.64886 12.62714 20651 ft 379 kts 155°
2026-04-21 13:34 44.62617 12.64556 20300 ft 376 kts 155°
2026-04-21 13:34 44.60360 12.66387 19954 ft 373 kts 155°
2026-04-21 13:35 44.58123 12.68200 19605 ft 371 kts 155°
2026-04-21 13:35 44.55896 12.70003 19257 ft 368 kts 155°
2026-04-21 13:35 44.53680 12.71790 18884 ft 367 kts 155°
2026-04-21 13:35 44.51470 12.73569 18542 ft 365 kts 155°
2026-04-21 13:36 44.49274 12.75334 18188 ft 362 kts 155°
2026-04-21 13:36 44.47094 12.77085 17794 ft 360 kts 155°
2026-04-21 13:36 44.44937 12.78818 17457 ft 356 kts 154°
2026-04-21 13:36 44.42797 12.80534 17127 ft 353 kts 154°
2026-04-21 13:37 44.40680 12.82230 16795 ft 350 kts 154°
2026-04-21 13:37 44.38577 12.83913 16464 ft 347 kts 154°
2026-04-21 13:37 44.36491 12.85582 16133 ft 345 kts 154°
2026-04-21 13:37 44.34443 12.87220 15806 ft 343 kts 154°
2026-04-21 13:38 44.32347 12.88902 15422 ft 342 kts 154°
2026-04-21 13:38 44.30298 12.90544 15117 ft 338 kts 154°
2026-04-21 13:38 44.28295 12.92148 14814 ft 335 kts 154°
2026-04-21 13:38 44.26283 12.93758 14497 ft 332 kts 154°
2026-04-21 13:39 44.24290 12.95352 14168 ft 330 kts 153°
2026-04-21 13:39 44.22306 12.96936 13851 ft 327 kts 153°
2026-04-21 13:39 44.20341 12.98505 13503 ft 325 kts 153°
2026-04-21 13:39 44.18390 13.00062 13167 ft 322 kts 153°
2026-04-21 13:40 44.16456 13.01603 12840 ft 319 kts 153°
2026-04-21 13:40 44.14541 13.03128 12538 ft 315 kts 153°
2026-04-21 13:40 44.12649 13.04634 12228 ft 312 kts 153°
2026-04-21 13:40 44.10768 13.06129 11920 ft 309 kts 152°
2026-04-21 13:41 44.08907 13.07609 11619 ft 307 kts 152°
2026-04-21 13:41 44.07063 13.09074 11314 ft 305 kts 152°
2026-04-21 13:41 44.05226 13.10531 11007 ft 302 kts 152°
2026-04-21 13:41 44.03406 13.11974 10706 ft 300 kts 152°
2026-04-21 13:42 44.01600 13.13405 10411 ft 298 kts 152°
2026-04-21 13:42 43.99803 13.14824 10111 ft 296 kts 151°
2026-04-21 13:42 43.98040 13.16221 9907 ft 290 kts 151°
2026-04-21 13:42 43.96293 13.17596 9600 ft 287 kts 153°
2026-04-21 13:43 43.94415 13.18470 9248 ft 284 kts 170°
2026-04-21 13:43 43.92489 13.19028 8939 ft 282 kts 169°
2026-04-21 13:43 43.91225 13.19406 8768 ft 280 kts 169°
2026-04-21 13:43 43.89327 13.19973 8481 ft 277 kts 169°
2026-04-21 13:44 43.87452 13.20535 8199 ft 275 kts 168°
2026-04-21 13:44 43.85595 13.21092 7975 ft 270 kts 168°
2026-04-21 13:44 43.83758 13.21639 7695 ft 272 kts 169°
2026-04-21 13:44 43.81905 13.22165 7533 ft 272 kts 167°
2026-04-21 13:45 43.80009 13.22743 6794 ft 291 kts 168°
2026-04-21 13:45 43.77959 13.23362 6117 ft 306 kts 167°
2026-04-21 13:45 43.75915 13.23979 5997 ft 294 kts 166°
2026-04-21 13:45 43.73960 13.24568 5914 ft 282 kts 167°
2026-04-21 13:46 43.72072 13.25133 5754 ft 274 kts 166°
2026-04-21 13:46 43.70232 13.25681 5535 ft 268 kts 167°
2026-04-21 13:46 43.68420 13.26220 5313 ft 263 kts 167°
2026-04-21 13:46 43.66659 13.26739 5184 ft 254 kts 168°
2026-04-21 13:47 43.64911 13.26682 4902 ft 254 kts 195°
2026-04-21 13:47 43.63374 13.25547 4580 ft 252 kts 222°
2026-04-21 13:47 43.62123 13.23913 4412 ft 244 kts 224°
2026-04-21 13:47 43.60928 13.22319 4311 ft 235 kts 225°
2026-04-21 13:48 43.59778 13.20765 4233 ft 229 kts 225°
2026-04-21 13:48 43.58645 13.19234 4127 ft 227 kts 225°
2026-04-21 13:48 43.57524 13.17695 4032 ft 227 kts 225°
2026-04-21 13:48 43.56359 13.16229 3820 ft 228 kts 212°
2026-04-21 13:49 43.54831 13.15745 3453 ft 233 kts 170°
2026-04-21 13:49 43.53390 13.16703 3163 ft 239 kts 137°
2026-04-21 13:49 43.52235 13.18319 2951 ft 234 kts 131°
2026-04-21 13:49 43.51506 13.20286 2725 ft 229 kts 96°
2026-04-21 13:50 43.51761 13.22349 2711 ft 221 kts 63°
2026-04-21 13:50 43.52705 13.23990 2660 ft 219 kts 46°
2026-04-21 13:50 43.53769 13.25456 2428 ft 215 kts 46°
2026-04-21 13:50 43.54827 13.26905 1883 ft 214 kts 45°
2026-04-21 13:51 43.55857 13.28316 1529 ft 199 kts 46°
2026-04-21 13:51 43.56761 13.29557 1400 ft 170 kts 45°
2026-04-21 13:51 43.57551 13.30634 1126 ft 153 kts 45°
2026-04-21 13:51 43.58297 13.31659 684 ft 149 kts 45°
2026-04-21 13:52 43.59004 13.32637 411 ft 140 kts 43°
2026-04-21 13:52 43.59700 13.33577 299 ft 145 kts 46°
2026-04-21 13:52 43.60468 13.34632 185 ft 159 kts 46°
2026-04-21 13:52 43.61223 13.35669 55 ft 143 kts 46°
2026-04-21 13:53 43.61808 13.36469 49 ft 85 kts 45°
2026-04-21 13:53 43.62153 13.36942 44 ft 67 kts 44°
2026-04-21 13:53 43.62416 13.37301 42 ft 39 kts 45°
2026-04-21 13:53 43.62523 13.37480 40 ft 17 kts 78°
2026-04-21 13:54 43.62565 13.37515 39 ft 3 kts 310°
2026-04-21 13:54 43.62546 13.37475 40 ft 10 kts 223°
2026-04-21 13:54 43.62435 13.37328 42 ft 36 kts 225°
2026-04-21 13:54 43.62238 13.37060 44 ft 41 kts 225°
2026-04-21 13:55 43.62036 13.36784 44 ft 39 kts 224°
2026-04-21 13:55 43.61852 13.36531 47 ft 37 kts 225°
2026-04-21 13:55 43.61677 13.36291 50 ft 35 kts 225°
2026-04-21 13:55 43.61505 13.36056 50 ft 35 kts 225°
2026-04-21 13:56 43.61338 13.35829 48 ft 29 kts 225°
2026-04-21 13:56 43.61208 13.35652 55 ft 20 kts 224°
2026-04-21 13:56 43.61109 13.35516 56 ft 20 kts 224°
2026-04-21 13:56 43.61011 13.35386 55 ft 19 kts 224°
2026-04-21 13:57 43.60917 13.35256 58 ft 19 kts 225°
2026-04-21 13:57 43.60831 13.35146 58 ft 13 kts 202°
2026-04-21 13:57 43.60764 13.35170 55 ft 9 kts 137°
2026-04-21 13:57 43.60722 13.35223 52 ft 7 kts 136°
2026-04-21 13:58 43.60711 13.35278 58 ft 6 kts 65°
2026-04-21 13:58 43.60738 13.35320 55 ft 6 kts 45°
2026-04-21 13:58 43.60769 13.35363 55 ft 6 kts 45°
2026-04-21 13:58 43.60802 13.35409 57 ft 7 kts 45°
2026-04-21 13:59 43.60823 13.35452 55 ft 4 kts 91°
2026-04-21 13:59 43.60811 13.35479 49 ft 3 kts 130°
2026-04-21 13:59 43.60798 13.35497 57 ft 1 kts 153°
2026-04-21 13:59 43.60788 13.35503 57 ft 1 kts 156°